Location: Banff
(51.1667°N, 115.5667°W)
Time: 11:23:36
(UTC+00:00)

A-11 Canister half - Pass Details

Date: 05 December 2020
Orbit: 1524 x 1684 km, 47.3° (Epoch: 20 January)

Event Time Altitude Azimuth Distance (km) Brightness Sun altitude
Exits shadow 14:37:30 - 263° (W) 4,885 11.1 -7.9°
Reaches altitude 10° 14:40:31 10° 262° (W) 3,946 10.7 -7.5°
Maximum altitude 14:50:36 72° 181° (S) 1,731 9.4 -6.1°
Drops below altitude 10° 15:00:27 10° 99° (E) 3,857 12.5 -4.7°
Sets 15:03:31 0° 98° (E) 4,822 13.1 -4.3°
